CST,Max TemperatureF,Mean TemperatureF,Min TemperatureF,Max Dew PointF,MeanDew PointF,Min DewpointF,Max Humidity, Mean Humidity, Min Humidity, Max Sea Level PressureIn, Mean Sea Level PressureIn, Min Sea Level PressureIn, Max VisibilityMiles, Mean VisibilityMiles, Min VisibilityMiles, Max Wind SpeedMPH, Mean Wind SpeedMPH, Max Gust SpeedMPH,PrecipitationIn, CloudCover, Events, WindDirDegrees
2013-12-1,50,36,21,28,25,19,100,74,40,30.17,30.07,29.90,10,10,7,8,3,,0.00,1,,27
2013-12-2,60,44,28,37,33,27,100,74,36,29.89,29.67,29.56,10,10,4,14,3,17,0.00,2,,191
2013-12-3,51,40,28,41,36,28,100,89,62,29.66,29.58,29.51,10,4,0,16,3,15,0.00,4,Fog,351
2013-12-4,39,28,17,37,25,9,100,88,68,30.04,29.74,29.59,10,7,0,21,12,31,0.00,8,,320
2013-12-5,19,14,10,10,4,0,73,63,53,30.45,30.28,30.06,10,10,9,20,13,29,0.00,3,Snow,323
2013-12-6,14,8,1,-2,-3,-8,78,60,48,30.71,30.55,30.44,10,10,10,20,12,23,0.00,6,,342
2013-12-7,17,8,-2,1,-4,-8,78,60,38,30.78,30.64,30.44,10,10,10,10,6,16,0.00,2,,44
2013-12-8,19,16,10,16,10,1,93,79,57,30.43,30.16,30.01,10,6,0,14,8,17,0.02,7,Snow,119
2013-12-9,10,0,-11,7,-4,-15,92,78,61,30.38,30.27,30.16,10,10,6,14,7,12,0.00,0,,251
2013-12-10,26,14,3,18,10,-2,80,69,54,30.29,30.19,30.12,10,10,10,12,7,16,0.00,3,,217
2013-12-11,28,13,-2,25,3,-8,86,73,52,30.67,30.54,30.25,10,10,9,26,10,39,0.00,3,Snow,330
2013-12-12,30,15,0,19,8,-4,93,77,59,30.54,30.34,30.13,10,10,10,12,6,,0.00,0,,192
2013-12-13,35,22,8,28,20,7,93,87,75,30.12,29.99,29.89,10,8,5,17,3,20,0.00,3,,42
2013-12-14,26,17,8,23,16,7,93,84,74,30.22,30.16,30.02,10,9,6,18,13,24,0.00,6,,334
2013-12-15,32,22,12,27,19,12,100,83,69,30.20,30.07,29.99,10,10,8,6,2,13,0.00,4,,62
2013-12-16,42,27,12,30,23,10,100,86,57,30.18,30.07,30.00,10,8,0,16,5,22,0.00,4,Fog,322
2013-12-17,39,28,17,27,19,14,100,84,36,30.27,30.20,30.15,10,10,7,13,3,20,0.00,2,,220
2013-12-18,59,40,21,32,25,16,93,67,34,30.18,29.88,29.75,10,10,10,21,7,29,0.00,0,,196
2013-12-19,41,32,24,32,29,23,100,86,70,29.82,29.77,29.71,10,9,4,17,6,23,0.00,4,,22
2013-12-20,28,24,19,27,19,16,100,93,86,29.97,29.91,29.82,10,8,4,21,13,26,0.00,8,,328
2013-12-21,26,22,19,23,19,16,100,89,80,29.93,29.83,29.74,10,7,0,18,7,22,0.00,8,Snow,9
2013-12-22,23,14,5,23,12,0,100,82,68,30.38,30.10,29.82,10,8,0,18,13,25,0.01,4,Rain-Snow,332
2013-12-23,8,-6,-20,1,-8,-24,84,70,52,30.62,30.55,30.39,10,10,10,16,9,24,0.00,3,Snow,314
2013-12-24,23,0,-22,21,-1,-27,100,78,62,30.59,30.36,30.21,10,9,2,14,4,23,0.00,6,Snow,170
2013-12-25,39,24,8,28,21,7,100,82,56,30.33,30.27,30.22,10,8,1,16,8,24,0.00,5,,273
2013-12-26,37,22,6,27,19,5,100,84,65,30.31,30.21,30.14,10,10,2,14,5,,0.00,0,,199
2013-12-27,44,26,8,30,20,5,100,80,53,30.30,30.22,30.13,10,10,0,12,3,13,0.00,0,Fog,185
2013-12-28,44,34,23,32,28,18,87,76,61,30.12,29.97,29.83,10,10,10,25,9,38,0.00,1,,190
2013-12-29,21,11,1,16,-1,-8,80,60,38,30.35,30.28,30.07,10,10,10,32,19,39,0.00,3,Snow,336
2013-12-30,28,14,0,19,4,-8,85,66,52,30.33,30.23,30.12,10,10,10,17,6,29,0.00,5,,202
2013-12-31,39,22,6,25,13,5,92,79,56,30.31,30.18,30.04,10,10,10,17,5,25,0.00,1,,66